Time,TemperatureF,DewpointF,PressureIn,WindDirection,WindDirectionDegrees,WindSpeedMPH,WindSpeedGustMPH,Humidity,HourlyPrecipIn,Conditions,Clouds,dailyrainin,SoftwareType,DateUTC
2013-07-15 00:03:00,74.5,68.0,30.23,North,6,0.0,0.0,80,-99.99,,,-99.99,perl,2013-07-15 04:03:00,
2013-07-15 00:05:00,74.5,68.0,30.23,North,6,0.0,0.0,80,-99.99,,,-99.99,perl,2013-07-15 04:05:00,
2013-07-15 00:06:00,74.5,68.0,30.23,North,7,0.0,0.0,80,-99.99,,,-99.99,perl,2013-07-15 04:06:00,
2013-07-15 00:11:00,74.7,68.0,30.23,North,7,0.0,0.0,80,-99.99,,,-99.99,perl,2013-07-15 04:11:00,
2013-07-15 00:13:00,74.7,68.0,30.23,North,6,0.0,0.0,80,-99.99,,,-99.99,perl,2013-07-15 04:13:00,
2013-07-15 00:18:00,74.5,68.0,30.26,North,6,0.0,0.0,80,-99.99,,,-99.99,perl,2013-07-15 04:18:00,
2013-07-15 00:20:00,74.5,68.0,30.26,North,6,0.0,0.0,80,-99.99,,,-99.99,perl,2013-07-15 04:20:00,
2013-07-15 00:25:00,74.5,68.0,30.26,North,6,0.0,0.0,80,-99.99,,,-99.99,perl,2013-07-15 04:25:00,
2013-07-15 00:30:00,74.5,68.0,30.26,North,6,0.0,0.0,80,-99.99,,,-99.99,perl,2013-07-15 04:30:00,
2013-07-15 00:35:00,74.3,68.0,30.26,North,6,0.0,0.0,81,-99.99,,,-99.99,perl,2013-07-15 04:35:00,
2013-07-15 00:40:00,74.3,68.0,30.26,North,6,0.0,0.0,81,-99.99,,,-99.99,perl,2013-07-15 04:40:00,
2013-07-15 00:45:00,74.1,66.2,30.26,North,6,0.0,0.0,77,-99.99,,,-99.99,perl,2013-07-15 04:45:00,
2013-07-15 00:51:00,74.1,66.2,30.26,North,6,0.0,0.0,77,-99.99,,,-99.99,perl,2013-07-15 04:51:00,
2013-07-15 00:56:00,74.1,66.2,30.26,North,6,0.0,0.0,77,-99.99,,,-99.99,perl,2013-07-15 04:56:00,
2013-07-15 01:01:00,74.1,66.2,30.26,North,6,0.0,0.0,77,-99.99,,,-99.99,perl,2013-07-15 05:01:00,
2013-07-15 01:06:00,74.1,66.2,30.26,North,7,0.0,0.0,77,-99.99,,,-99.99,perl,2013-07-15 05:06:00,
2013-07-15 01:12:00,73.9,68.0,30.26,North,6,0.0,0.0,82,-99.99,,,-99.99,perl,2013-07-15 05:12:00,
2013-07-15 01:17:00,73.9,68.0,30.23,North,6,0.0,0.0,82,-99.99,,,-99.99,perl,2013-07-15 05:17:00,
2013-07-15 01:22:00,73.9,68.0,30.23,North,7,0.0,0.0,82,-99.99,,,-99.99,perl,2013-07-15 05:22:00,
2013-07-15 01:27:00,73.9,68.0,30.23,North,6,0.0,0.0,82,-99.99,,,-99.99,perl,2013-07-15 05:27:00,
2013-07-15 01:33:00,73.9,68.0,30.23,North,6,0.0,0.0,82,-99.99,,,-99.99,perl,2013-07-15 05:33:00,
2013-07-15 01:38:00,73.9,68.0,30.23,North,6,0.0,0.0,82,-99.99,,,-99.99,perl,2013-07-15 05:38:00,
2013-07-15 01:44:00,73.8,68.0,30.23,North,6,0.0,0.0,82,-99.99,,,-99.99,perl,2013-07-15 05:44:00,
2013-07-15 01:49:00,73.8,68.0,30.23,North,6,0.0,0.0,82,-99.99,,,-99.99,perl,2013-07-15 05:49:00,
2013-07-15 01:54:00,73.8,68.0,30.23,North,6,0.0,0.0,82,-99.99,,,-99.99,perl,2013-07-15 05:54:00,
2013-07-15 01:59:00,73.8,68.0,30.23,North,6,0.0,0.0,82,-99.99,,,-99.99,perl,2013-07-15 05:59:00,
2013-07-15 02:04:00,73.8,68.0,30.23,North,7,0.0,0.0,82,-99.99,,,-99.99,perl,2013-07-15 06:04:00,
2013-07-15 02:09:00,73.8,68.0,30.23,North,6,0.0,0.0,82,-99.99,,,-99.99,perl,2013-07-15 06:09:00,
2013-07-15 02:14:00,73.8,68.0,30.23,North,6,0.0,0.0,82,-99.99,,,-99.99,perl,2013-07-15 06:14:00,
2013-07-15 02:19:00,73.8,68.0,30.23,North,6,0.0,0.0,82,-99.99,,,-99.99,perl,2013-07-15 06:19:00,
2013-07-15 02:24:00,73.8,68.0,30.23,North,6,0.0,0.0,82,-99.99,,,-99.99,perl,2013-07-15 06:24:00,
2013-07-15 02:29:00,73.8,68.0,30.23,North,6,0.0,0.0,82,-99.99,,,-99.99,perl,2013-07-15 06:29:00,
2013-07-15 02:34:00,73.8,68.0,30.23,North,6,0.0,0.0,82,-99.99,,,-99.99,perl,2013-07-15 06:34:00,
2013-07-15 02:39:00,73.8,68.0,30.23,North,6,0.0,0.0,82,-99.99,,,-99.99,perl,2013-07-15 06:39:00,
2013-07-15 02:44:00,73.8,68.0,30.23,North,6,0.0,0.0,82,-99.99,,,-99.99,perl,2013-07-15 06:44:00,
2013-07-15 02:49:00,73.8,68.0,30.23,North,6,0.0,0.0,82,-99.99,,,-99.99,perl,2013-07-15 06:49:00,
2013-07-15 02:54:00,73.9,68.0,30.23,North,6,0.0,0.0,82,-99.99,,,-99.99,perl,2013-07-15 06:54:00,
2013-07-15 02:59:00,73.9,68.0,30.23,North,6,0.0,0.0,82,-99.99,,,-99.99,perl,2013-07-15 06:59:00,
2013-07-15 03:04:00,73.9,68.0,30.23,North,6,0.0,0.0,82,-99.99,,,-99.99,perl,2013-07-15 07:04:00,
2013-07-15 03:09:00,73.9,68.0,30.23,North,6,0.0,0.0,82,-99.99,,,-99.99,perl,2013-07-15 07:09:00,
2013-07-15 03:14:00,73.9,68.0,30.23,North,6,0.0,0.0,82,-99.99,,,-99.99,perl,2013-07-15 07:14:00,
2013-07-15 03:19:00,73.9,68.0,30.23,North,6,0.0,0.0,82,-99.99,,,-99.99,perl,2013-07-15 07:19:00,
2013-07-15 03:24:00,73.9,68.0,30.23,North,6,0.0,0.0,82,-99.99,,,-99.99,perl,2013-07-15 07:24:00,
2013-07-15 03:29:00,73.9,68.0,30.23,North,6,0.0,0.0,82,-99.99,,,-99.99,perl,2013-07-15 07:29:00,
2013-07-15 03:34:00,73.9,68.0,30.23,North,6,0.0,0.0,82,-99.99,,,-99.99,perl,2013-07-15 07:34:00,
2013-07-15 03:39:00,73.9,68.0,30.23,North,6,0.0,0.0,82,-99.99,,,-99.99,perl,2013-07-15 07:39:00,
2013-07-15 03:45:00,73.9,68.0,30.23,North,6,0.0,0.0,82,-99.99,,,-99.99,perl,2013-07-15 07:45:00,
2013-07-15 03:50:00,73.9,68.0,30.23,North,6,0.0,0.0,82,-99.99,,,-99.99,perl,2013-07-15 07:50:00,
2013-07-15 03:56:00,73.8,68.0,30.23,North,6,0.0,0.0,82,-99.99,,,-99.99,perl,2013-07-15 07:56:00,
2013-07-15 04:01:00,73.8,68.0,30.26,North,6,0.0,0.0,82,-99.99,,,-99.99,perl,2013-07-15 08:01:00,
2013-07-15 04:07:00,73.6,69.8,30.26,North,6,0.0,0.0,88,-99.99,,,-99.99,perl,2013-07-15 08:07:00,
2013-07-15 04:12:00,73.6,69.8,30.26,North,6,0.0,0.0,88,-99.99,,,-99.99,perl,2013-07-15 08:12:00,
2013-07-15 04:17:00,73.6,69.8,30.26,North,6,0.0,0.0,88,-99.99,,,-99.99,perl,2013-07-15 08:17:00,
2013-07-15 04:22:00,73.6,69.8,30.26,North,6,0.0,0.0,88,-99.99,,,-99.99,perl,2013-07-15 08:22:00,
2013-07-15 04:27:00,73.4,69.8,30.26,North,6,0.0,0.0,89,-99.99,,,-99.99,perl,2013-07-15 08:27:00,
2013-07-15 04:33:00,73.6,69.8,30.26,North,6,0.0,0.0,88,-99.99,,,-99.99,perl,2013-07-15 08:33:00,
2013-07-15 04:38:00,73.4,69.8,30.26,North,6,0.0,0.0,89,-99.99,,,-99.99,perl,2013-07-15 08:38:00,
2013-07-15 04:43:00,73.4,69.8,30.26,North,6,0.0,0.0,89,-99.99,,,-99.99,perl,2013-07-15 08:43:00,
2013-07-15 04:48:00,73.2,69.8,30.26,North,7,0.0,0.0,90,-99.99,,,-99.99,perl,2013-07-15 08:48:00,
2013-07-15 04:53:00,73.4,69.8,30.26,North,6,0.0,0.0,89,-99.99,,,-99.99,perl,2013-07-15 08:53:00,
2013-07-15 04:59:00,73.2,69.8,30.26,North,6,0.0,0.0,90,-99.99,,,-99.99,perl,2013-07-15 08:59:00,
2013-07-15 05:04:00,73.2,69.8,30.26,North,6,0.0,0.0,90,-99.99,,,-99.99,perl,2013-07-15 09:04:00,
2013-07-15 05:09:00,73.2,69.8,30.26,North,6,0.0,0.0,90,-99.99,,,-99.99,perl,2013-07-15 09:09:00,
2013-07-15 05:14:00,73.2,69.8,30.26,North,6,0.0,0.0,90,-99.99,,,-99.99,perl,2013-07-15 09:14:00,
2013-07-15 05:19:00,73.2,69.8,30.26,North,6,0.0,0.0,90,-99.99,,,-99.99,perl,2013-07-15 09:19:00,
2013-07-15 05:24:00,73.2,69.8,30.26,North,6,0.0,0.0,90,-99.99,,,-99.99,perl,2013-07-15 09:24:00,
2013-07-15 05:29:00,73.2,69.8,30.26,North,6,0.0,0.0,90,-99.99,,,-99.99,perl,2013-07-15 09:29:00,
2013-07-15 05:36:00,73.2,69.8,30.23,North,6,0.0,0.0,90,-99.99,,,-99.99,perl,2013-07-15 09:36:00,
2013-07-15 05:41:00,73.2,69.8,30.23,North,7,0.0,0.0,90,-99.99,,,-99.99,perl,2013-07-15 09:41:00,
2013-07-15 05:46:00,73.4,69.8,30.26,North,6,0.0,0.0,89,-99.99,,,-99.99,perl,2013-07-15 09:46:00,
2013-07-15 05:51:00,73.2,69.8,30.26,North,6,0.0,0.0,90,-99.99,,,-99.99,perl,2013-07-15 09:51:00,
2013-07-15 05:56:00,73.2,69.8,30.26,North,6,0.0,0.0,90,-99.99,,,-99.99,perl,2013-07-15 09:56:00,
2013-07-15 06:01:00,73.2,69.8,30.26,North,6,0.0,0.0,90,-99.99,,,-99.99,perl,2013-07-15 10:01:00,
2013-07-15 06:06:00,73.2,69.8,30.26,North,6,0.0,0.0,90,-99.99,,,-99.99,perl,2013-07-15 10:06:00,
2013-07-15 06:11:00,73.2,69.8,30.26,North,6,0.0,0.0,90,-99.99,,,-99.99,perl,2013-07-15 10:11:00,
2013-07-15 06:16:00,73.2,69.8,30.26,North,6,0.0,0.0,90,-99.99,,,-99.99,perl,2013-07-15 10:16:00,
2013-07-15 06:21:00,73.2,69.8,30.26,North,6,0.0,0.0,90,-99.99,,,-99.99,perl,2013-07-15 10:21:00,
2013-07-15 06:26:00,73.2,69.8,30.26,North,6,0.0,0.0,90,-99.99,,,-99.99,perl,2013-07-15 10:26:00,
2013-07-15 06:31:00,73.2,69.8,30.26,North,6,0.0,0.0,90,-99.99,,,-99.99,perl,2013-07-15 10:31:00,
2013-07-15 06:36:00,73.2,69.8,30.26,North,6,0.0,0.0,90,-99.99,,,-99.99,perl,2013-07-15 10:36:00,
2013-07-15 06:41:00,73.2,69.8,30.26,North,6,0.0,0.0,90,-99.99,,,-99.99,perl,2013-07-15 10:41:00,
2013-07-15 06:46:00,73.2,69.8,30.26,North,6,0.0,0.0,90,-99.99,,,-99.99,perl,2013-07-15 10:46:00,
2013-07-15 06:51:00,73.2,71.6,30.26,North,6,0.0,0.0,95,-99.99,,,-99.99,perl,2013-07-15 10:51:00,
2013-07-15 06:56:00,73.2,71.6,30.26,North,6,0.0,0.0,95,-99.99,,,-99.99,perl,2013-07-15 10:56:00,
2013-07-15 07:01:00,73.2,71.6,30.26,North,6,0.0,0.0,95,-99.99,,,-99.99,perl,2013-07-15 11:01:00,
2013-07-15 07:06:00,73.2,71.6,30.26,North,6,0.0,0.0,95,-99.99,,,-99.99,perl,2013-07-15 11:06:00,
2013-07-15 07:11:00,73.4,69.8,30.26,North,7,0.0,0.0,89,-99.99,,,-99.99,perl,2013-07-15 11:11:00,
2013-07-15 07:16:00,73.4,69.8,30.29,North,6,0.0,0.0,89,-99.99,,,-99.99,perl,2013-07-15 11:16:00,
2013-07-15 07:21:00,73.6,71.6,30.29,North,6,0.0,0.0,93,-99.99,,,-99.99,perl,2013-07-15 11:21:00,
2013-07-15 07:27:00,73.8,71.6,30.29,North,6,0.0,0.0,92,-99.99,,,-99.99,perl,2013-07-15 11:27:00,
2013-07-15 07:32:00,73.8,71.6,30.29,North,6,0.0,0.0,92,-99.99,,,-99.99,perl,2013-07-15 11:32:00,
2013-07-15 07:37:00,73.9,71.6,30.29,North,6,0.0,0.0,92,-99.99,,,-99.99,perl,2013-07-15 11:37:00,
2013-07-15 07:42:00,74.1,71.6,30.29,North,6,0.0,0.0,92,-99.99,,,-99.99,perl,2013-07-15 11:42:00,
2013-07-15 07:47:00,74.3,73.4,30.29,North,6,0.0,0.0,97,-99.99,,,-99.99,perl,2013-07-15 11:47:00,
2013-07-15 07:52:00,74.7,73.4,30.29,North,6,0.0,0.0,96,-99.99,,,-99.99,perl,2013-07-15 11:52:00,
2013-07-15 07:57:00,75.0,73.4,30.29,North,6,0.0,0.0,95,-99.99,,,-99.99,perl,2013-07-15 11:57:00,
2013-07-15 08:02:00,75.2,73.4,30.29,North,6,0.0,0.0,94,-99.99,,,-99.99,perl,2013-07-15 12:02:00,
2013-07-15 08:07:00,75.4,73.4,30.29,North,6,0.0,0.0,94,-99.99,,,-99.99,perl,2013-07-15 12:07:00,
2013-07-15 08:08:00,75.6,73.4,30.29,North,6,0.0,0.0,93,-99.99,,,-99.99,perl,2013-07-15 12:08:00,
2013-07-15 08:13:00,75.9,73.4,30.29,North,6,0.0,0.0,92,-99.99,,,-99.99,perl,2013-07-15 12:13:00,
2013-07-15 08:18:00,76.5,75.2,30.29,North,6,0.0,0.0,96,-99.99,,,-99.99,perl,2013-07-15 12:18:00,
2013-07-15 08:23:00,76.6,75.2,30.29,SSE,160,0.0,0.0,96,-99.99,,,-99.99,perl,2013-07-15 12:23:00,
2013-07-15 08:28:00,76.8,73.4,30.29,WNW,298,0.0,0.0,90,-99.99,,,-99.99,perl,2013-07-15 12:28:00,
2013-07-15 08:33:00,77.0,73.4,30.29,WNW,298,0.0,0.0,89,-99.99,,,-99.99,perl,2013-07-15 12:33:00,
2013-07-15 08:38:00,77.2,73.4,30.29,WNW,298,0.0,0.0,88,-99.99,,,-99.99,perl,2013-07-15 12:38:00,
2013-07-15 08:44:00,77.5,73.4,30.29,WNW,298,0.0,0.0,88,-99.99,,,-99.99,perl,2013-07-15 12:44:00,
2013-07-15 08:49:00,77.5,73.4,30.29,WSW,248,0.0,0.0,88,-99.99,,,-99.99,perl,2013-07-15 12:49:00,
2013-07-15 08:54:00,77.9,75.2,30.29,West,261,0.0,0.0,91,-99.99,,,-99.99,perl,2013-07-15 12:54:00,
2013-07-15 08:59:00,78.4,75.2,30.29,West,273,0.0,0.0,90,-99.99,,,-99.99,perl,2013-07-15 12:59:00,
2013-07-15 09:04:00,79.0,73.4,30.29,WSW,239,0.0,0.0,83,-99.99,,,-99.99,perl,2013-07-15 13:04:00,
2013-07-15 09:09:00,79.5,73.4,30.29,WSW,237,0.0,0.0,82,-99.99,,,-99.99,perl,2013-07-15 13:09:00,
2013-07-15 09:14:00,80.1,75.2,30.29,SW,236,0.0,0.0,85,-99.99,,,-99.99,perl,2013-07-15 13:14:00,
2013-07-15 09:19:00,80.4,75.2,30.29,WSW,237,0.0,0.0,85,-99.99,,,-99.99,perl,2013-07-15 13:19:00,
2013-07-15 09:24:00,81.0,75.2,30.29,WSW,238,0.0,0.0,83,-99.99,,,-99.99,perl,2013-07-15 13:24:00,
2013-07-15 09:29:00,81.3,73.4,30.29,WSW,240,0.0,0.0,77,-99.99,,,-99.99,perl,2013-07-15 13:29:00,
2013-07-15 09:34:00,81.7,75.2,30.29,WSW,240,0.0,0.0,81,-99.99,,,-99.99,perl,2013-07-15 13:34:00,
2013-07-15 09:39:00,81.7,75.2,30.29,WSW,240,0.0,0.0,81,-99.99,,,-99.99,perl,2013-07-15 13:39:00,
2013-07-15 09:44:00,81.9,75.2,30.29,WSW,239,0.0,0.0,80,-99.99,,,-99.99,perl,2013-07-15 13:44:00,
2013-07-15 09:49:00,81.9,75.2,30.29,WSW,240,0.0,0.0,80,-99.99,,,-99.99,perl,2013-07-15 13:49:00,
2013-07-15 09:55:00,81.7,73.4,30.29,WSW,240,0.0,0.0,76,-99.99,,,-99.99,perl,2013-07-15 13:55:00,
2013-07-15 10:00:00,81.5,73.4,30.29,WSW,240,0.0,0.0,77,-99.99,,,-99.99,perl,2013-07-15 14:00:00,
2013-07-15 10:05:00,81.7,73.4,30.29,WSW,240,0.0,0.0,76,-99.99,,,-99.99,perl,2013-07-15 14:05:00,
2013-07-15 10:11:00,81.9,73.4,30.29,WSW,240,0.0,0.0,76,-99.99,,,-99.99,perl,2013-07-15 14:11:00,
2013-07-15 10:16:00,82.0,75.2,30.29,WSW,240,0.0,0.0,80,-99.99,,,-99.99,perl,2013-07-15 14:16:00,
2013-07-15 10:21:00,82.2,73.4,30.29,WSW,240,0.0,0.0,75,-99.99,,,-99.99,perl,2013-07-15 14:21:00,
2013-07-15 10:26:00,82.8,73.4,30.29,WSW,240,0.0,0.0,73,-99.99,,,-99.99,perl,2013-07-15 14:26:00,
2013-07-15 10:32:00,82.8,71.6,30.29,WSW,256,0.0,0.0,69,-99.99,,,-99.99,perl,2013-07-15 14:32:00,
2013-07-15 10:37:00,83.1,71.6,30.29,WSW,247,0.0,0.0,68,-99.99,,,-99.99,perl,2013-07-15 14:37:00,
2013-07-15 10:42:00,83.5,71.6,30.29,WSW,250,0.0,0.0,67,-99.99,,,-99.99,perl,2013-07-15 14:42:00,
2013-07-15 10:47:00,83.7,71.6,30.29,WSW,249,0.0,0.0,67,-99.99,,,-99.99,perl,2013-07-15 14:47:00,
2013-07-15 10:52:00,83.8,71.6,30.29,WSW,249,0.0,0.0,67,-99.99,,,-99.99,perl,2013-07-15 14:52:00,
2013-07-15 10:57:00,84.2,71.6,30.29,NE,56,0.0,0.0,66,-99.99,,,-99.99,perl,2013-07-15 14:57:00,
2013-07-15 11:02:00,84.7,71.6,30.29,SW,235,0.0,0.0,65,-99.99,,,-99.99,perl,2013-07-15 15:02:00,
2013-07-15 11:07:00,85.3,73.4,30.29,WNW,282,0.0,0.0,68,-99.99,,,-99.99,perl,2013-07-15 15:07:00,
2013-07-15 11:12:00,85.5,73.4,30.29,NNE,21,0.0,0.0,67,-99.99,,,-99.99,perl,2013-07-15 15:12:00,
2013-07-15 11:17:00,85.1,73.4,30.29,South,176,0.0,0.0,69,-99.99,,,-99.99,perl,2013-07-15 15:17:00,
2013-07-15 11:22:00,84.6,71.6,30.29,North,353,0.0,0.0,65,-99.99,,,-99.99,perl,2013-07-15 15:22:00,
2013-07-15 11:27:00,84.6,71.6,30.29,West,266,0.0,0.0,65,-99.99,,,-99.99,perl,2013-07-15 15:27:00,
2013-07-15 11:32:00,84.9,71.6,30.29,NW,322,0.0,0.0,65,-99.99,,,-99.99,perl,2013-07-15 15:32:00,
2013-07-15 11:39:00,86.0,73.4,30.29,ENE,70,0.0,0.0,66,-99.99,,,-99.99,perl,2013-07-15 15:39:00,
2013-07-15 11:44:00,86.5,73.4,30.29,NW,326,0.0,0.0,65,-99.99,,,-99.99,perl,2013-07-15 15:44:00,
2013-07-15 11:49:00,87.3,73.4,30.29,East,85,0.0,0.0,64,-99.99,,,-99.99,perl,2013-07-15 15:49:00,
2013-07-15 11:54:00,87.4,71.6,30.29,SW,214,0.0,0.0,60,-99.99,,,-99.99,perl,2013-07-15 15:54:00,
2013-07-15 11:59:00,87.4,71.6,30.29,WNW,298,0.0,0.0,60,-99.99,,,-99.99,perl,2013-07-15 15:59:00,
2013-07-15 12:04:00,87.1,69.8,30.29,NNW,328,0.0,0.0,57,-99.99,,,-99.99,perl,2013-07-15 16:04:00,
2013-07-15 12:09:00,86.7,68.0,30.29,WSW,257,0.0,0.0,54,-99.99,,,-99.99,perl,2013-07-15 16:09:00,
2013-07-15 12:14:00,86.4,68.0,30.29,South,173,0.0,0.0,55,-99.99,,,-99.99,perl,2013-07-15 16:14:00,
2013-07-15 12:19:00,87.1,69.8,30.26,West,274,0.0,0.0,57,-99.99,,,-99.99,perl,2013-07-15 16:19:00,
2013-07-15 12:24:00,87.1,69.8,30.26,West,274,0.0,0.0,57,-99.99,,,-99.99,perl,2013-07-15 16:24:00,
2013-07-15 12:29:00,86.9,69.8,30.26,WNW,289,0.0,2.2,57,-99.99,,,-99.99,perl,2013-07-15 16:29:00,
2013-07-15 12:34:00,86.9,69.8,30.26,WNW,289,0.0,0.0,57,-99.99,,,-99.99,perl,2013-07-15 16:34:00,
2013-07-15 12:39:00,87.4,69.8,30.26,NW,323,0.0,0.0,56,-99.99,,,-99.99,perl,2013-07-15 16:39:00,
2013-07-15 12:44:00,87.3,68.0,30.26,WNW,295,2.2,3.1,53,-99.99,,,-99.99,perl,2013-07-15 16:44:00,
2013-07-15 12:49:00,87.6,69.8,30.26,ESE,110,0.7,4.9,56,-99.99,,,-99.99,perl,2013-07-15 16:49:00,
2013-07-15 12:55:00,87.8,68.0,30.26,SW,214,0.0,0.0,52,-99.99,,,-99.99,perl,2013-07-15 16:55:00,
2013-07-15 13:00:00,88.2,68.0,30.26,SSE,156,0.0,0.0,52,-99.99,,,-99.99,perl,2013-07-15 17:00:00,
2013-07-15 13:05:00,88.7,69.8,30.26,North,353,0.0,0.0,54,-99.99,,,-99.99,perl,2013-07-15 17:05:00,
2013-07-15 13:11:00,88.7,68.0,30.26,East,86,0.0,0.0,51,-99.99,,,-99.99,perl,2013-07-15 17:11:00,
2013-07-15 13:16:00,88.3,66.2,30.26,West,279,0.0,0.0,48,-99.99,,,-99.99,perl,2013-07-15 17:16:00,
2013-07-15 13:21:00,87.8,66.2,30.26,SW,216,0.0,0.0,49,-99.99,,,-99.99,perl,2013-07-15 17:21:00,
2013-07-15 13:27:00,88.3,68.0,30.26,SE,142,0.0,0.0,52,-99.99,,,-99.99,perl,2013-07-15 17:27:00,
2013-07-15 13:32:00,88.9,68.0,30.26,NNW,343,0.0,0.0,50,-99.99,,,-99.99,perl,2013-07-15 17:32:00,
2013-07-15 13:37:00,89.1,66.2,30.26,East,92,0.0,0.0,47,-99.99,,,-99.99,perl,2013-07-15 17:37:00,
2013-07-15 13:42:00,89.4,64.4,30.26,WSW,257,0.0,0.0,44,-99.99,,,-99.99,perl,2013-07-15 17:42:00,
2013-07-15 13:47:00,89.6,60.8,30.26,NNW,333,0.0,0.0,38,-99.99,,,-99.99,perl,2013-07-15 17:47:00,
2013-07-15 13:54:00,89.1,62.6,30.26,West,264,0.0,0.0,42,-99.99,,,-99.99,perl,2013-07-15 17:54:00,
2013-07-15 13:59:00,88.7,62.6,30.26,West,259,0.0,0.0,42,-99.99,,,-99.99,perl,2013-07-15 17:59:00,
2013-07-15 14:04:00,88.7,62.6,30.23,NNW,338,0.0,0.0,42,-99.99,,,-99.99,perl,2013-07-15 18:04:00,
2013-07-15 14:09:00,89.2,60.8,30.23,West,281,1.8,0.0,39,-99.99,,,-99.99,perl,2013-07-15 18:09:00,
2013-07-15 14:14:00,90.0,60.8,30.23,NNW,345,0.0,0.0,38,-99.99,,,-99.99,perl,2013-07-15 18:14:00,
2013-07-15 14:19:00,90.5,62.6,30.26,West,262,0.0,0.0,40,-99.99,,,-99.99,perl,2013-07-15 18:19:00,
2013-07-15 14:24:00,90.9,62.6,30.26,ENE,64,0.0,0.0,39,-99.99,,,-99.99,perl,2013-07-15 18:24:00,
2013-07-15 14:29:00,90.9,62.6,30.26,South,179,0.0,0.0,39,-99.99,,,-99.99,perl,2013-07-15 18:29:00,
2013-07-15 14:34:00,90.7,60.8,30.26,SW,221,2.0,3.1,37,-99.99,,,-99.99,perl,2013-07-15 18:34:00,
2013-07-15 14:39:00,90.7,62.6,30.26,South,190,0.0,0.0,39,-99.99,,,-99.99,perl,2013-07-15 18:39:00,
2013-07-15 14:44:00,90.7,60.8,30.26,ESE,103,0.0,0.0,37,-99.99,,,-99.99,perl,2013-07-15 18:44:00,
2013-07-15 14:49:00,90.7,60.8,30.26,ENE,69,0.0,0.0,37,-99.99,,,-99.99,perl,2013-07-15 18:49:00,
2013-07-15 14:56:00,90.5,60.8,30.26,SSE,166,0.0,0.0,37,-99.99,,,-99.99,perl,2013-07-15 18:56:00,
2013-07-15 15:01:00,90.3,60.8,30.26,NE,46,0.0,0.0,38,-99.99,,,-99.99,perl,2013-07-15 19:01:00,
2013-07-15 15:06:00,90.5,59.0,30.26,West,267,0.0,3.6,35,-99.99,,,-99.99,perl,2013-07-15 19:06:00,
2013-07-15 15:11:00,90.5,60.8,30.26,NNW,329,0.0,0.0,37,-99.99,,,-99.99,perl,2013-07-15 19:11:00,
2013-07-15 15:17:00,91.0,59.0,30.26,SW,236,0.0,4.5,35,-99.99,,,-99.99,perl,2013-07-15 19:17:00,
2013-07-15 15:23:00,90.9,60.8,30.26,West,280,0.0,0.0,37,-99.99,,,-99.99,perl,2013-07-15 19:23:00,
2013-07-15 15:29:00,90.7,60.8,30.26,NE,35,0.0,0.0,37,-99.99,,,-99.99,perl,2013-07-15 19:29:00,
2013-07-15 15:34:00,90.9,60.8,30.26,NW,315,0.0,0.0,37,-99.99,,,-99.99,perl,2013-07-15 19:34:00,
2013-07-15 15:39:00,91.0,59.0,30.26,East,80,0.0,0.0,35,-99.99,,,-99.99,perl,2013-07-15 19:39:00,
2013-07-15 15:44:00,91.2,60.8,30.26,SSW,207,0.0,0.0,37,-99.99,,,-99.99,perl,2013-07-15 19:44:00,
2013-07-15 15:49:00,91.4,59.0,30.26,NNE,18,0.0,0.0,34,-99.99,,,-99.99,perl,2013-07-15 19:49:00,
2013-07-15 15:54:00,91.8,59.0,30.26,South,178,0.0,0.0,34,-99.99,,,-99.99,perl,2013-07-15 19:54:00,
2013-07-15 15:59:00,91.0,59.0,30.26,West,260,0.0,0.0,35,-99.99,,,-99.99,perl,2013-07-15 19:59:00,
2013-07-15 16:06:00,90.7,60.8,30.23,SSE,148,0.0,0.0,37,-99.99,,,-99.99,perl,2013-07-15 20:06:00,
2013-07-15 16:11:00,90.9,60.8,30.23,WNW,288,0.0,0.0,37,-99.99,,,-99.99,perl,2013-07-15 20:11:00,
2013-07-15 16:16:00,91.0,60.8,30.23,NNW,338,0.0,0.0,37,-99.99,,,-99.99,perl,2013-07-15 20:16:00,
2013-07-15 16:21:00,90.7,60.8,30.23,NW,312,0.0,0.0,37,-99.99,,,-99.99,perl,2013-07-15 20:21:00,
2013-07-15 16:26:00,90.3,59.0,30.23,NNW,338,0.0,0.0,35,-99.99,,,-99.99,perl,2013-07-15 20:26:00,
2013-07-15 16:31:00,90.3,59.0,30.23,North,353,0.0,0.0,35,-99.99,,,-99.99,perl,2013-07-15 20:31:00,
2013-07-15 16:36:00,90.5,60.8,30.23,NNW,342,0.0,0.0,37,-99.99,,,-99.99,perl,2013-07-15 20:36:00,
2013-07-15 16:42:00,90.3,60.8,30.23,North,2,0.0,0.0,38,-99.99,,,-99.99,perl,2013-07-15 20:42:00,
2013-07-15 16:47:00,90.3,60.8,30.23,North,353,0.0,0.0,38,-99.99,,,-99.99,perl,2013-07-15 20:47:00,
2013-07-15 16:52:00,90.3,59.0,30.23,NNW,341,0.0,0.0,35,-99.99,,,-99.99,perl,2013-07-15 20:52:00,
2013-07-15 16:57:00,90.0,59.0,30.23,East,81,0.0,0.0,36,-99.99,,,-99.99,perl,2013-07-15 20:57:00,
2013-07-15 17:02:00,89.8,59.0,30.23,SW,222,0.0,4.0,36,-99.99,,,-99.99,perl,2013-07-15 21:02:00,
2013-07-15 17:07:00,89.2,59.0,30.23,NNW,332,0.0,0.0,37,-99.99,,,-99.99,perl,2013-07-15 21:07:00,
2013-07-15 17:12:00,89.1,59.0,30.23,West,259,0.0,0.0,37,-99.99,,,-99.99,perl,2013-07-15 21:12:00,
2013-07-15 17:19:00,89.1,60.8,30.23,North,353,0.0,0.0,39,-99.99,,,-99.99,perl,2013-07-15 21:19:00,
2013-07-15 17:24:00,89.2,59.0,30.23,NW,316,0.0,0.0,37,-99.99,,,-99.99,perl,2013-07-15 21:24:00,
2013-07-15 17:29:00,89.4,60.8,30.23,South,185,0.0,0.0,39,-99.99,,,-99.99,perl,2013-07-15 21:29:00,
2013-07-15 17:34:00,89.4,59.0,30.23,NNW,338,0.0,0.0,36,-99.99,,,-99.99,perl,2013-07-15 21:34:00,
2013-07-15 17:39:00,89.2,60.8,30.23,WNW,298,0.0,0.0,39,-99.99,,,-99.99,perl,2013-07-15 21:39:00,
2013-07-15 17:44:00,89.1,59.0,30.23,NNW,332,0.0,0.0,37,-99.99,,,-99.99,perl,2013-07-15 21:44:00,
2013-07-15 17:49:00,88.7,59.0,30.23,East,97,0.0,0.0,37,-99.99,,,-99.99,perl,2013-07-15 21:49:00,
2013-07-15 17:54:00,88.7,59.0,30.23,West,274,0.0,0.0,37,-99.99,,,-99.99,perl,2013-07-15 21:54:00,
2013-07-15 17:59:00,88.7,59.0,30.23,North,357,0.0,0.0,37,-99.99,,,-99.99,perl,2013-07-15 21:59:00,
2013-07-15 18:04:00,88.3,55.4,30.23,NNW,345,0.0,0.0,33,-99.99,,,-99.99,perl,2013-07-15 22:04:00,
2013-07-15 18:09:00,88.0,55.4,30.23,North,353,0.0,0.0,33,-99.99,,,-99.99,perl,2013-07-15 22:09:00,
2013-07-15 18:15:00,87.6,57.2,30.23,NNW,339,0.0,0.0,36,-99.99,,,-99.99,perl,2013-07-15 22:15:00,
2013-07-15 18:20:00,87.4,59.0,30.23,NNW,339,0.0,0.0,39,-99.99,,,-99.99,perl,2013-07-15 22:20:00,
2013-07-15 18:25:00,87.3,59.0,30.23,NNW,343,0.0,0.0,39,-99.99,,,-99.99,perl,2013-07-15 22:25:00,
2013-07-15 18:30:00,87.3,59.0,30.23,NNW,335,0.0,0.0,39,-99.99,,,-99.99,perl,2013-07-15 22:30:00,
2013-07-15 18:36:00,87.1,57.2,30.23,NW,324,0.0,0.0,36,-99.99,,,-99.99,perl,2013-07-15 22:36:00,
2013-07-15 18:41:00,86.9,57.2,30.23,North,7,0.0,0.0,37,-99.99,,,-99.99,perl,2013-07-15 22:41:00,
2013-07-15 18:47:00,86.5,53.6,30.23,NNW,336,0.0,0.0,33,-99.99,,,-99.99,perl,2013-07-15 22:47:00,
2013-07-15 18:52:00,86.4,53.6,30.23,NNW,335,0.0,0.0,33,-99.99,,,-99.99,perl,2013-07-15 22:52:00,
2013-07-15 18:57:00,86.2,51.8,30.23,NNW,336,0.0,0.0,31,-99.99,,,-99.99,perl,2013-07-15 22:57:00,
2013-07-15 19:02:00,85.8,51.8,30.23,NNW,336,0.0,0.0,31,-99.99,,,-99.99,perl,2013-07-15 23:02:00,
2013-07-15 19:07:00,85.6,51.8,30.23,NNW,336,0.0,0.0,31,-99.99,,,-99.99,perl,2013-07-15 23:07:00,
2013-07-15 19:12:00,85.5,51.8,30.23,NNW,336,0.0,0.0,31,-99.99,,,-99.99,perl,2013-07-15 23:12:00,
2013-07-15 19:18:00,85.1,51.8,30.23,NNW,336,0.0,0.0,32,-99.99,,,-99.99,perl,2013-07-15 23:18:00,
2013-07-15 19:23:00,84.9,50.0,30.23,NNW,336,0.0,0.0,30,-99.99,,,-99.99,perl,2013-07-15 23:23:00,
2013-07-15 19:28:00,84.7,50.0,30.23,NNW,336,0.0,0.0,30,-99.99,,,-99.99,perl,2013-07-15 23:28:00,
2013-07-15 19:34:00,84.6,51.8,30.23,NNW,336,0.0,0.0,32,-99.99,,,-99.99,perl,2013-07-15 23:34:00,
2013-07-15 19:40:00,84.4,51.8,30.23,NNW,336,0.0,0.0,32,-99.99,,,-99.99,perl,2013-07-15 23:40:00,
2013-07-15 19:45:00,84.0,51.8,30.23,NNW,336,0.0,0.0,33,-99.99,,,-99.99,perl,2013-07-15 23:45:00,
2013-07-15 19:50:00,83.8,53.6,30.23,NNW,336,0.0,0.0,36,-99.99,,,-99.99,perl,2013-07-15 23:50:00,
2013-07-15 19:56:00,83.5,53.6,30.23,NNW,336,0.0,0.0,36,-99.99,,,-99.99,perl,2013-07-15 23:56:00,
2013-07-15 20:01:00,83.1,51.8,30.23,NNW,336,0.0,0.0,34,-99.99,,,-99.99,perl,2013-07-16 00:01:00,
2013-07-15 20:06:00,82.8,50.0,30.23,NNW,336,0.0,0.0,32,-99.99,,,-99.99,perl,2013-07-16 00:06:00,
2013-07-15 20:11:00,82.6,50.0,30.23,NNW,336,0.0,0.0,32,-99.99,,,-99.99,perl,2013-07-16 00:11:00,
2013-07-15 20:16:00,82.4,50.0,30.20,NNW,336,0.0,0.0,33,-99.99,,,-99.99,perl,2013-07-16 00:16:00,
2013-07-15 20:21:00,82.2,50.0,30.20,NNW,336,0.0,0.0,33,-99.99,,,-99.99,perl,2013-07-16 00:21:00,
2013-07-15 20:26:00,81.9,51.8,30.20,NNW,336,0.0,0.0,35,-99.99,,,-99.99,perl,2013-07-16 00:26:00,
2013-07-15 20:32:00,81.1,50.0,30.23,NNW,336,0.0,0.0,34,-99.99,,,-99.99,perl,2013-07-16 00:32:00,
2013-07-15 20:39:00,80.8,50.0,30.23,NNW,336,0.0,0.0,34,-99.99,,,-99.99,perl,2013-07-16 00:39:00,
2013-07-15 20:44:00,80.4,51.8,30.23,NNW,336,0.0,0.0,37,-99.99,,,-99.99,perl,2013-07-16 00:44:00,
2013-07-15 20:51:00,79.9,51.8,30.20,NNW,336,0.0,0.0,37,-99.99,,,-99.99,perl,2013-07-16 00:51:00,
2013-07-15 20:56:00,79.7,53.6,30.20,NNW,336,0.0,0.0,41,-99.99,,,-99.99,perl,2013-07-16 00:56:00,
2013-07-15 21:01:00,79.3,51.8,30.23,NNW,336,0.0,0.0,38,-99.99,,,-99.99,perl,2013-07-16 01:01:00,
2013-07-15 21:07:00,79.0,51.8,30.23,NNW,336,0.0,0.0,39,-99.99,,,-99.99,perl,2013-07-16 01:07:00,
2013-07-15 21:12:00,78.6,53.6,30.23,NNW,336,0.0,0.0,42,-99.99,,,-99.99,perl,2013-07-16 01:12:00,
2013-07-15 21:18:00,78.3,53.6,30.23,NNW,336,0.0,0.0,43,-99.99,,,-99.99,perl,2013-07-16 01:18:00,
2013-07-15 21:24:00,77.9,55.4,30.23,NNW,336,0.0,0.0,46,-99.99,,,-99.99,perl,2013-07-16 01:24:00,
2013-07-15 21:30:00,77.5,53.6,30.23,NNW,336,0.0,0.0,44,-99.99,,,-99.99,perl,2013-07-16 01:30:00,
2013-07-15 21:35:00,77.2,53.6,30.23,NNW,336,0.0,0.0,44,-99.99,,,-99.99,perl,2013-07-16 01:35:00,
2013-07-15 21:41:00,77.0,53.6,30.23,NNW,336,0.0,0.0,44,-99.99,,,-99.99,perl,2013-07-16 01:41:00,
2013-07-15 21:46:00,76.8,55.4,30.23,NNW,336,0.0,0.0,48,-99.99,,,-99.99,perl,2013-07-16 01:46:00,
2013-07-15 21:51:00,76.6,55.4,30.23,NNW,336,0.0,0.0,48,-99.99,,,-99.99,perl,2013-07-16 01:51:00,
2013-07-15 21:56:00,76.5,55.4,30.23,NNW,336,0.0,0.0,48,-99.99,,,-99.99,perl,2013-07-16 01:56:00,
2013-07-15 22:01:00,76.5,55.4,30.23,NNW,336,0.0,0.0,48,-99.99,,,-99.99,perl,2013-07-16 02:01:00,
2013-07-15 22:06:00,76.5,55.4,30.23,NNW,336,0.0,0.0,48,-99.99,,,-99.99,perl,2013-07-16 02:06:00,
2013-07-15 22:11:00,76.5,57.2,30.23,NNW,336,0.0,0.0,51,-99.99,,,-99.99,perl,2013-07-16 02:11:00,
2013-07-15 22:16:00,76.3,57.2,30.23,NNW,336,0.0,0.0,52,-99.99,,,-99.99,perl,2013-07-16 02:16:00,
2013-07-15 22:21:00,76.1,57.2,30.23,NNW,336,0.0,0.0,52,-99.99,,,-99.99,perl,2013-07-16 02:21:00,
2013-07-15 22:27:00,75.7,55.4,30.23,NNW,336,0.0,0.0,50,-99.99,,,-99.99,perl,2013-07-16 02:27:00,
2013-07-15 22:32:00,75.4,55.4,30.23,NNW,336,0.0,0.0,50,-99.99,,,-99.99,perl,2013-07-16 02:32:00,
2013-07-15 22:37:00,75.2,57.2,30.23,NNW,336,0.0,0.0,54,-99.99,,,-99.99,perl,2013-07-16 02:37:00,
2013-07-15 22:42:00,75.0,57.2,30.23,NNW,336,0.0,0.0,54,-99.99,,,-99.99,perl,2013-07-16 02:42:00,
2013-07-15 22:47:00,75.0,57.2,30.23,NNW,336,0.0,0.0,54,-99.99,,,-99.99,perl,2013-07-16 02:47:00,
2013-07-15 22:52:00,74.7,57.2,30.23,NNW,336,0.0,0.0,55,-99.99,,,-99.99,perl,2013-07-16 02:52:00,
2013-07-15 22:57:00,74.5,57.2,30.23,NNW,336,0.0,0.0,55,-99.99,,,-99.99,perl,2013-07-16 02:57:00,
2013-07-15 23:02:00,74.3,57.2,30.20,NNW,336,0.0,0.0,55,-99.99,,,-99.99,perl,2013-07-16 03:02:00,
2013-07-15 23:07:00,74.1,57.2,30.20,NNW,336,0.0,0.0,56,-99.99,,,-99.99,perl,2013-07-16 03:07:00,
2013-07-15 23:12:00,73.9,57.2,30.20,NNW,336,0.0,0.0,56,-99.99,,,-99.99,perl,2013-07-16 03:12:00,
2013-07-15 23:17:00,73.8,59.0,30.23,NNW,336,0.0,0.0,60,-99.99,,,-99.99,perl,2013-07-16 03:17:00,
2013-07-15 23:22:00,73.6,59.0,30.23,NNW,336,0.0,0.0,60,-99.99,,,-99.99,perl,2013-07-16 03:22:00,
2013-07-15 23:29:00,73.4,60.8,30.23,NNW,336,0.0,0.0,65,-99.99,,,-99.99,perl,2013-07-16 03:29:00,
2013-07-15 23:35:00,73.2,60.8,30.23,NNW,336,0.0,0.0,66,-99.99,,,-99.99,perl,2013-07-16 03:35:00,
2013-07-15 23:40:00,73.0,62.6,30.23,NNW,336,0.0,0.0,70,-99.99,,,-99.99,perl,2013-07-16 03:40:00,
2013-07-15 23:45:00,72.9,62.6,30.23,NNW,336,0.0,0.0,70,-99.99,,,-99.99,perl,2013-07-16 03:45:00,
2013-07-15 23:50:00,72.7,62.6,30.23,NNW,336,0.0,0.0,71,-99.99,,,-99.99,perl,2013-07-16 03:50:00,
2013-07-15 23:56:00,72.5,64.4,30.23,NNW,336,0.0,0.0,76,-99.99,,,-99.99,perl,2013-07-16 03:56:00,